Hourly Weather Binche

Today, 28 October, Wednesday

Time Temperature Precipitation Wind Pressure Humidity
00:00 +10°C° 0 mm 6 mps 742 mmHg 90%
01:00 +10°C° 0.2 mm 5 mps 742 mmHg 90%
02:00 +9°C° 0.2 mm 5 mps 742 mmHg 91%
03:00 +9°C° 0.2 mm 5 mps 743 mmHg 91%
04:00 +8°C° 0 mm 5 mps 743 mmHg 91%
05:00 +8°C° 0 mm 5 mps 743 mmHg 90%
06:00 +8°C° 0 mm 5 mps 744 mmHg 91%
07:00 +8°C° 0 mm 6 mps 744 mmHg 89%
08:00 +9°C° 0 mm 7 mps 745 mmHg 86%
09:00 +10°C° 0 mm 8 mps 745 mmHg 84%
10:00 +10°C° 0 mm 8 mps 745 mmHg 79%
11:00 +11°C° 0 mm 8 mps 745 mmHg 74%
12:00 +12°C° 0 mm 9 mps 745 mmHg 72%
13:00 +11°C° 0.2 mm 9 mps 745 mmHg 74%
14:00 +11°C° 0.2 mm 8 mps 745 mmHg 76%
15:00 +11°C° 0.2 mm 8 mps 745 mmHg 78%
16:00 +10°C° 0.4 mm 8 mps 745 mmHg 81%
17:00 +10°C° 0.4 mm 8 mps 744 mmHg 84%
18:00 +10°C° 0.4 mm 8 mps 744 mmHg 87%
19:00 +10°C° 0.9 mm 8 mps 744 mmHg 88%
20:00 +10°C° 0.9 mm 9 mps 745 mmHg 88%
21:00 +10°C° 0.9 mm 9 mps 745 mmHg 88%
22:00 +9°C° 0.4 mm 8 mps 745 mmHg 87%
23:00 +9°C° 0.4 mm 7 mps 746 mmHg 86%

Tomorrow, 29 October, Thursday

Time Temperature Precipitation Wind Pressure Humidity
00:00 +8°C° 0.4 mm 6 mps 746 mmHg 85%
01:00 +8°C° 0.1 mm 6 mps 747 mmHg 85%
02:00 +8°C° 0.1 mm 6 mps 747 mmHg 84%
03:00 +7°C° 0.1 mm 5 mps 748 mmHg 84%
04:00 +7°C° 0.1 mm 5 mps 748 mmHg 86%
05:00 +7°C° 0.1 mm 5 mps 749 mmHg 87%
06:00 +7°C° 0.1 mm 4 mps 749 mmHg 88%
07:00 +8°C° 0.1 mm 5 mps 750 mmHg 86%
08:00 +9°C° 0.1 mm 5 mps 751 mmHg 85%
09:00 +9°C° 0.1 mm 5 mps 752 mmHg 83%
10:00 +10°C° 0.1 mm 5 mps 752 mmHg 83%
11:00 +10°C° 0.1 mm 6 mps 752 mmHg 84%
12:00 +11°C° 0.1 mm 6 mps 752 mmHg 84%
13:00 +10°C° 0.2 mm 6 mps 752 mmHg 86%
14:00 +10°C° 0.2 mm 6 mps 752 mmHg 88%
15:00 +10°C° 0.2 mm 6 mps 752 mmHg 89%
16:00 +10°C° 0.6 mm 6 mps 752 mmHg 90%
17:00 +10°C° 0.6 mm 6 mps 752 mmHg 91%
18:00 +10°C° 0.6 mm 7 mps 752 mmHg 92%
19:00 +10°C° 0 mm 7 mps 752 mmHg 91%
20:00 +11°C° 0 mm 7 mps 753 mmHg 90%
21:00 +11°C° 0 mm 7 mps 753 mmHg 89%
22:00 +11°C° 0 mm 7 mps 753 mmHg 90%
23:00 +11°C° 0 mm 6 mps 753 mmHg 91%

Day after tomorrow, 30 October, Friday

Time Temperature Precipitation Wind Pressure Humidity
00:00 +11°C° 0 mm 6 mps 753 mmHg 92%
01:00 +11°C° 0 mm 6 mps 753 mmHg 92%
02:00 +10°C° 0 mm 6 mps 753 mmHg 92%
03:00 +10°C° 0 mm 6 mps 753 mmHg 91%
04:00 +10°C° 0 mm 6 mps 753 mmHg 91%
05:00 +11°C° 0 mm 6 mps 753 mmHg 91%
06:00 +11°C° 0 mm 6 mps 753 mmHg 90%
07:00 +11°C° 0 mm 6 mps 754 mmHg 89%
08:00 +11°C° 0 mm 6 mps 754 mmHg 88%
09:00 +13°C° 0 mm 6 mps 754 mmHg 86%
10:00 +12°C° 0 mm 7 mps 754 mmHg 84%
11:00 +14°C° 0 mm 7 mps 754 mmHg 82%
12:00 +15°C° 0 mm 7 mps 754 mmHg 80%
13:00 +14°C° 0 mm 6 mps 755 mmHg 80%
14:00 +14°C° 0 mm 6 mps 755 mmHg 80%
15:00 +14°C° 0 mm 5 mps 755 mmHg 80%
16:00 +14°C° 0 mm 5 mps 755 mmHg 81%
17:00 +13°C° 0 mm 4 mps 755 mmHg 82%
18:00 +13°C° 0 mm 4 mps 755 mmHg 83%
19:00 +12°C° 0 mm 4 mps 755 mmHg 85%
20:00 +12°C° 0 mm 4 mps 755 mmHg 87%
21:00 +11°C° 0 mm 4 mps 756 mmHg 89%
22:00 +11°C° 0 mm 4 mps 755 mmHg 89%
23:00 +10°C° 0 mm 4 mps 755 mmHg 89%

31 October, Saturday

Time Temperature Precipitation Wind Pressure Humidity
00:00 +10°C° 0 mm 3 mps 755 mmHg 90%
01:00 +10°C° 0 mm 4 mps 755 mmHg 91%
02:00 +10°C° 0 mm 4 mps 755 mmHg 92%
03:00 +8°C° 0 mm 4 mps 755 mmHg 93%
04:00 +8°C° 0 mm 4 mps 754 mmHg 93%
05:00 +8°C° 0 mm 4 mps 754 mmHg 93%
06:00 +8°C° 0 mm 5 mps 754 mmHg 93%
07:00 +9°C° 0 mm 5 mps 754 mmHg 90%
08:00 +10°C° 0 mm 6 mps 754 mmHg 86%
09:00 +11°C° 0 mm 6 mps 753 mmHg 83%
10:00 +13°C° 0 mm 6 mps 753 mmHg 79%
11:00 +14°C° 0 mm 6 mps 753 mmHg 75%
12:00 +15°C° 0 mm 7 mps 752 mmHg 72%
13:00 +15°C° 0 mm 6 mps 752 mmHg 73%
14:00 +15°C° 0 mm 6 mps 752 mmHg 75%
15:00 +14°C° 0 mm 5 mps 751 mmHg 77%
16:00 +14°C° 0 mm 5 mps 751 mmHg 77%
17:00 +14°C° 0 mm 5 mps 751 mmHg 78%
18:00 +13°C° 0 mm 5 mps 751 mmHg 79%
19:00 +13°C° 0 mm 6 mps 751 mmHg 79%
20:00 +13°C° 0 mm 6 mps 751 mmHg 79%
21:00 +13°C° 0 mm 6 mps 750 mmHg 79%
22:00 +13°C° 0 mm 6 mps 750 mmHg 80%
23:00 +12°C° 0 mm 7 mps 750 mmHg 81%

1 November, Sunday

Time Temperature Precipitation Wind Pressure Humidity
00:00 +14°C° 0 mm 7 mps 749 mmHg 82%
01:00 +13°C° 0 mm 8 mps 749 mmHg 82%
02:00 +13°C° 0 mm 8 mps 748 mmHg 82%
03:00 +13°C° 0 mm 9 mps 748 mmHg 82%
04:00 +13°C° 0.1 mm 9 mps 748 mmHg 83%
05:00 +13°C° 0.1 mm 9 mps 748 mmHg 83%
06:00 +13°C° 0.1 mm 9 mps 747 mmHg 84%
07:00 +13°C° 0.6 mm 9 mps 747 mmHg 85%
08:00 +13°C° 0.6 mm 10 mps 747 mmHg 87%
09:00 +13°C° 0.6 mm 10 mps 747 mmHg 88%
10:00 +13°C° 0.3 mm 10 mps 747 mmHg 88%
11:00 +13°C° 0.3 mm 10 mps 747 mmHg 88%
12:00 +13°C° 0.3 mm 10 mps 747 mmHg 89%
13:00 +13°C° 0.1 mm 10 mps 746 mmHg 88%
14:00 +13°C° 0.1 mm 9 mps 746 mmHg 87%
15:00 +13°C° 0.1 mm 9 mps 746 mmHg 86%
16:00 +15°C° 1 mm 9 mps 746 mmHg 88%
17:00 +15°C° 1 mm 9 mps 746 mmHg 90%
18:00 +15°C° 1 mm 9 mps 746 mmHg 92%
19:00 +15°C° 0.3 mm 9 mps 746 mmHg 91%
20:00 +15°C° 0.3 mm 8 mps 746 mmHg 90%
21:00 +15°C° 0.3 mm 8 mps 746 mmHg 90%
22:00 +15°C° 0 mm 8 mps 746 mmHg 88%
23:00 +15°C° 0 mm 9 mps 746 mmHg 87%

2 November, Monday

Time Temperature Precipitation Wind Pressure Humidity
00:00 +15°C° 0 mm 9 mps 746 mmHg 85%
01:00 +15°C° 0 mm 9 mps 746 mmHg 85%
02:00 +15°C° 0 mm 8 mps 745 mmHg 85%
03:00 +15°C° 0 mm 8 mps 745 mmHg 85%
04:00 +15°C° 0 mm 8 mps 745 mmHg 85%
05:00 +15°C° 0 mm 8 mps 745 mmHg 85%
06:00 +15°C° 0 mm 8 mps 745 mmHg 85%
07:00 +15°C° 0 mm 9 mps 745 mmHg 80%
08:00 +15°C° 0 mm 9 mps 744 mmHg 76%
09:00 +15°C° 0 mm 9 mps 744 mmHg 71%
10:00 +16°C° 0 mm 9 mps 744 mmHg 70%
11:00 +17°C° 0 mm 9 mps 744 mmHg 69%
12:00 +17°C° 0 mm 9 mps 744 mmHg 67%
13:00 +17°C° 0 mm 9 mps 744 mmHg 69%
14:00 +17°C° 0 mm 8 mps 745 mmHg 71%
15:00 +17°C° 0 mm 7 mps 745 mmHg 73%
16:00 +16°C° 0.2 mm 5 mps 745 mmHg 78%
17:00 +14°C° 0.2 mm 4 mps 746 mmHg 83%
18:00 +14°C° 0.2 mm 2 mps 746 mmHg 88%
19:00 +14°C° 0.2 mm 2 mps 747 mmHg 89%
20:00 +14°C° 0.2 mm 2 mps 747 mmHg 90%
21:00 +13°C° 0.2 mm 2 mps 748 mmHg 91%
22:00 +13°C° 0 mm 2 mps 748 mmHg 91%
23:00 +13°C° 0 mm 2 mps 748 mmHg 92%
Show more

We Need Your Consent

Meteoprog and our Service Providers may store and access personal data such as cookies, device identifiers or other similar technologies on your device and process such data to personalise content and ads, as well as provide social media features and to analyse the traffic.

  • Store and/or access information on your device

    Cookies, device identifiers or other information can be stored or accessed on your device for the purposes indicated above.

  • Personalised ads and content, ad and content measurement, audience insights, and products development

    Ads and content can be personalised based on a profile. More data can be added to better personalise ads and content. Ad and content performance can be measured. Insights about the audience who saw the ads and content can be derived. Such data can be used to develop or improve user’s experience, systems and software.

By clicking ‘I Agree’ you will allow the use of indicated cookies, device identifiers, web beacons or other similar technologies. Your settings can be changed in the browser on your device.

For certain purposes, legitimate interests may be relied on, rather than consent. You can read more about this in our Privacy and Cookie Policy.